owner,sensor,date,latitude,longitude,vertical_datum,direction_of_sea_water_velocity,sea_water_speed,upward_sea_water_velocity,qcFlag 
WAVCIS,ioos:station:WAVCIS:CSI16:1,2009-08-01T00:00:00Z,29.4012,-89.0355,10.86,282.0,0.158,-99999.0,'11133222,11111222,99999999' 
WAVCIS,ioos:station:WAVCIS:CSI16:1,2009-08-01T01:00:00Z,29.4012,-89.0355,10.86,268.0,0.027,-99999.0,'11133222,11111222,99999999' 
WAVCIS,ioos:station:WAVCIS:CSI16:1,2009-08-01T02:00:00Z,29.4012,-89.0355,10.86,180.0,0.024,-99999.0,'11133222,11111222,99999999' 
WAVCIS,ioos:station:WAVCIS:CSI16:1,2009-08-01T03:00:00Z,29.4012,-89.0355,10.86,231.0,0.014,-99999.0,'11133222,11111222,99999999' 
WAVCIS,ioos:station:WAVCIS:CSI16:1,2009-08-01T04:00:00Z,29.4012,-89.0355,10.86,137.0,0.022,-99999.0,'11133222,11111222,99999999' 
WAVCIS,ioos:station:WAVCIS:CSI16:1,2009-08-01T05:00:00Z,29.4012,-89.0355,10.86,98.0,0.098,-99999.0,'11133222,11111222,99999999' 
WAVCIS,ioos:station:WAVCIS:CSI16:1,2009-08-01T06:00:00Z,29.4012,-89.0355,11.36,100.0,0.121,-99999.0,'11133222,11111222,99999999' 
WAVCIS,ioos:station:WAVCIS:CSI16:1,2009-08-01T07:00:00Z,29.4012,-89.0355,11.36,103.0,0.11,-99999.0,'11133222,11111222,99999999' 
WAVCIS,ioos:station:WAVCIS:CSI16:1,2009-08-01T08:00:00Z,29.4012,-89.0355,11.36,99.0,0.139,-99999.0,'11133222,11111222,99999999' 
WAVCIS,ioos:station:WAVCIS:CSI16:1,2009-08-01T09:00:00Z,29.4012,-89.0355,11.36,77.0,0.108,-99999.0,'11133222,11111222,99999999' 
WAVCIS,ioos:station:WAVCIS:CSI16:1,2009-08-01T10:00:00Z,29.4012,-89.0355,11.36,92.0,0.138,-99999.0,'11133222,11111222,99999999' 
WAVCIS,ioos:station:WAVCIS:CSI16:1,2009-08-01T11:00:00Z,29.4012,-89.0355,11.36,114.0,0.216,-99999.0,'11133222,11111222,99999999' 
WAVCIS,ioos:station:WAVCIS:CSI16:1,2009-08-01T12:00:00Z,29.4012,-89.0355,11.36,142.0,0.252,-99999.0,'11133222,11111222,99999999' 
WAVCIS,ioos:station:WAVCIS:CSI16:1,2009-08-01T13:00:00Z,29.4012,-89.0355,11.36,178.0,0.183,-99999.0,'11133222,11111222,99999999' 
WAVCIS,ioos:station:WAVCIS:CSI16:1,2009-08-01T14:00:00Z,29.4012,-89.0355,11.36,279.0,0.032,-99999.0,'11133222,11111222,99999999' 
WAVCIS,ioos:station:WAVCIS:CSI16:1,2009-08-01T15:00:00Z,29.4012,-89.0355,11.36,168.0,0.042,-99999.0,'11133222,11111222,99999999' 
WAVCIS,ioos:station:WAVCIS:CSI16:1,2009-08-01T16:00:00Z,29.4012,-89.0355,11.36,149.0,0.051,-99999.0,'11133222,11111222,99999999' 
WAVCIS,ioos:station:WAVCIS:CSI16:1,2009-08-01T17:00:00Z,29.4012,-89.0355,11.36,74.0,0.022,-99999.0,'11133222,11111222,99999999' 
WAVCIS,ioos:station:WAVCIS:CSI16:1,2009-08-01T18:00:00Z,29.4012,-89.0355,11.36,176.0,0.044,-99999.0,'11133222,11111222,99999999' 
WAVCIS,ioos:station:WAVCIS:CSI16:1,2009-08-01T19:00:00Z,29.4012,-89.0355,10.86,231.0,0.536,-99999.0,'11133222,11111222,99999999' 
WAVCIS,ioos:station:WAVCIS:CSI16:1,2009-08-01T20:00:00Z,29.4012,-89.0355,10.86,222.0,0.647,-99999.0,'11133222,11111222,99999999' 
WAVCIS,ioos:station:WAVCIS:CSI16:1,2009-08-01T21:00:00Z,29.4012,-89.0355,10.86,225.0,0.554,-99999.0,'11133222,11111222,99999999' 
WAVCIS,ioos:station:WAVCIS:CSI16:1,2009-08-01T22:00:00Z,29.4012,-89.0355,10.86,242.0,0.414,-99999.0,'11133222,11111222,99999999' 
WAVCIS,ioos:station:WAVCIS:CSI16:1,2009-08-01T23:00:00Z,29.4012,-89.0355,10.86,254.0,0.342,-99999.0,'11133222,11111222,99999999' 
WAVCIS,ioos:station:WAVCIS:CSI16:1,2009-08-02T00:00:00Z,29.4012,-89.0355,10.86,277.0,0.211,-99999.0,'11133222,11111222,99999999' 
WAVCIS,ioos:station:WAVCIS:CSI16:1,2009-08-02T01:00:00Z,29.4012,-89.0355,10.86,297.0,0.112,-99999.0,'11133222,11111222,99999999' 
WAVCIS,ioos:station:WAVCIS:CSI16:1,2009-08-02T02:00:00Z,29.4012,-89.0355,10.86,75.0,0.02,-99999.0,'11133222,11111222,99999999' 
WAVCIS,ioos:station:WAVCIS:CSI16:1,2009-08-02T03:00:00Z,29.4012,-89.0355,10.86,355.0,0.025,-99999.0,'11133222,11111222,99999999' 
WAVCIS,ioos:station:WAVCIS:CSI16:1,2009-08-02T04:00:00Z,29.4012,-89.0355,10.86,124.0,0.053,-99999.0,'11133222,11111222,99999999' 
WAVCIS,ioos:station:WAVCIS:CSI16:1,2009-08-02T05:00:00Z,29.4012,-89.0355,10.86,65.0,0.157,-99999.0,'11133222,11111222,99999999' 
WAVCIS,ioos:station:WAVCIS:CSI16:1,2009-08-02T06:00:00Z,29.4012,-89.0355,11.36,356.0,0.052,-99999.0,'11133222,11111222,99999999' 
WAVCIS,ioos:station:WAVCIS:CSI16:1,2009-08-02T07:00:00Z,29.4012,-89.0355,11.36,91.0,0.11,-99999.0,'11133222,11111222,99999999' 
WAVCIS,ioos:station:WAVCIS:CSI16:1,2009-08-02T08:00:00Z,29.4012,-89.0355,11.36,162.0,0.182,-99999.0,'11133222,11111222,99999999' 
WAVCIS,ioos:station:WAVCIS:CSI16:1,2009-08-02T09:00:00Z,29.4012,-89.0355,11.36,101.0,0.094,-99999.0,'11133222,11111222,99999999' 
WAVCIS,ioos:station:WAVCIS:CSI16:1,2009-08-02T10:00:00Z,29.4012,-89.0355,11.36,78.0,0.034,-99999.0,'11133222,11111222,99999999' 
WAVCIS,ioos:station:WAVCIS:CSI16:1,2009-08-02T11:00:00Z,29.4012,-89.0355,11.36,57.0,0.068,-99999.0,'11133222,11111222,99999999' 
WAVCIS,ioos:station:WAVCIS:CSI16:1,2009-08-02T12:00:00Z,29.4012,-89.0355,11.36,79.0,0.146,-99999.0,'11133222,11111222,99999999' 
WAVCIS,ioos:station:WAVCIS:CSI16:1,2009-08-02T13:00:00Z,29.4012,-89.0355,11.36,75.0,0.134,-99999.0,'11133222,11111222,99999999' 
WAVCIS,ioos:station:WAVCIS:CSI16:1,2009-08-02T14:00:00Z,29.4012,-89.0355,11.36,100.0,0.123,-99999.0,'11133222,11111222,99999999' 
WAVCIS,ioos:station:WAVCIS:CSI16:1,2009-08-02T15:00:00Z,29.4012,-89.0355,11.36,153.0,0.093,-99999.0,'11133222,11111222,99999999' 
WAVCIS,ioos:station:WAVCIS:CSI16:1,2009-08-02T16:00:00Z,29.4012,-89.0355,11.36,241.0,0.173,-99999.0,'11133222,11111222,99999999' 
WAVCIS,ioos:station:WAVCIS:CSI16:1,2009-08-02T17:00:00Z,29.4012,-89.0355,11.36,239.0,0.169,-99999.0,'11133222,11111222,99999999' 
WAVCIS,ioos:station:WAVCIS:CSI16:1,2009-08-02T18:00:00Z,29.4012,-89.0355,11.36,204.0,0.134,-99999.0,'11133222,11111222,99999999' 
WAVCIS,ioos:station:WAVCIS:CSI16:1,2009-08-02T19:00:00Z,29.4012,-89.0355,11.36,187.0,0.132,-99999.0,'11133222,11111222,99999999' 
WAVCIS,ioos:station:WAVCIS:CSI16:1,2009-08-02T20:00:00Z,29.4012,-89.0355,10.86,234.0,0.447,-99999.0,'11133222,11111222,99999999' 
WAVCIS,ioos:station:WAVCIS:CSI16:1,2009-08-02T21:00:00Z,29.4012,-89.0355,10.86,235.0,0.508,-99999.0,'11133222,11111222,99999999' 
WAVCIS,ioos:station:WAVCIS:CSI16:1,2009-08-02T22:00:00Z,29.4012,-89.0355,10.86,252.0,0.268,-99999.0,'11133222,11111222,99999999' 
WAVCIS,ioos:station:WAVCIS:CSI16:1,2009-08-02T23:00:00Z,29.4012,-89.0355,10.86,279.0,0.141,-99999.0,'11133222,11111222,99999999' 
WAVCIS,ioos:station:WAVCIS:CSI16:1,2009-08-03T00:00:00Z,29.4012,-89.0355,10.86,251.0,0.052,-99999.0,'11133222,11111222,99999999' 
WAVCIS,ioos:station:WAVCIS:CSI16:1,2009-08-03T01:00:00Z,29.4012,-89.0355,10.86,190.0,0.118,-99999.0,'11133222,11111222,99999999' 
WAVCIS,ioos:station:WAVCIS:CSI16:1,2009-08-03T02:00:00Z,29.4012,-89.0355,10.86,346.0,0.142,-99999.0,'11133222,11111222,99999999' 
WAVCIS,ioos:station:WAVCIS:CSI16:1,2009-08-03T03:00:00Z,29.4012,-89.0355,10.86,114.0,0.068,-99999.0,'11133222,11111222,99999999' 
WAVCIS,ioos:station:WAVCIS:CSI16:1,2009-08-03T04:00:00Z,29.4012,-89.0355,11.36,90.0,0.105,-99999.0,'11133222,11111222,99999999' 
WAVCIS,ioos:station:WAVCIS:CSI16:1,2009-08-03T05:00:00Z,29.4012,-89.0355,11.36,348.0,0.094,-99999.0,'11133222,11111222,99999999' 
WAVCIS,ioos:station:WAVCIS:CSI16:1,2009-08-03T06:00:00Z,29.4012,-89.0355,10.86,142.0,0.206,-99999.0,'11133222,11111222,99999999' 
WAVCIS,ioos:station:WAVCIS:CSI16:1,2009-08-03T07:00:00Z,29.4012,-89.0355,11.36,173.0,0.16,-99999.0,'11133222,11111222,99999999' 
WAVCIS,ioos:station:WAVCIS:CSI16:1,2009-08-03T08:00:00Z,29.4012,-89.0355,11.36,207.0,0.022,-99999.0,'11133222,11111222,99999999' 
WAVCIS,ioos:station:WAVCIS:CSI16:1,2009-08-03T09:00:00Z,29.4012,-89.0355,11.36,170.0,0.067,-99999.0,'11133222,11111222,99999999' 
WAVCIS,ioos:station:WAVCIS:CSI16:1,2009-08-03T10:00:00Z,29.4012,-89.0355,11.36,63.0,0.077,-99999.0,'11133222,11111222,99999999' 
WAVCIS,ioos:station:WAVCIS:CSI16:1,2009-08-03T11:00:00Z,29.4012,-89.0355,11.36,204.0,0.092,-99999.0,'11133222,11111222,99999999' 
WAVCIS,ioos:station:WAVCIS:CSI16:1,2009-08-03T12:00:00Z,29.4012,-89.0355,11.36,96.0,0.115,-99999.0,'11133222,11111222,99999999' 
WAVCIS,ioos:station:WAVCIS:CSI16:1,2009-08-03T13:00:00Z,29.4012,-89.0355,11.36,94.0,0.112,-99999.0,'11133222,11111222,99999999' 
WAVCIS,ioos:station:WAVCIS:CSI16:1,2009-08-03T14:00:00Z,29.4012,-89.0355,11.36,133.0,0.045,-99999.0,'11133222,11111222,99999999' 
WAVCIS,ioos:station:WAVCIS:CSI16:1,2009-08-03T15:00:00Z,29.4012,-89.0355,11.36,267.0,0.11,-99999.0,'11133222,11111222,99999999' 
WAVCIS,ioos:station:WAVCIS:CSI16:1,2009-08-03T16:00:00Z,29.4012,-89.0355,11.36,274.0,0.13,-99999.0,'11133222,11111222,99999999' 
WAVCIS,ioos:station:WAVCIS:CSI16:1,2009-08-03T17:00:00Z,29.4012,-89.0355,11.36,192.0,0.055,-99999.0,'11133222,11111222,99999999' 
WAVCIS,ioos:station:WAVCIS:CSI16:1,2009-08-03T18:00:00Z,29.4012,-89.0355,11.36,175.0,0.074,-99999.0,'11133222,11111222,99999999' 
WAVCIS,ioos:station:WAVCIS:CSI16:1,2009-08-03T19:00:00Z,29.4012,-89.0355,11.36,196.0,0.141,-99999.0,'11133222,11111222,99999999' 
WAVCIS,ioos:station:WAVCIS:CSI16:1,2009-08-03T20:00:00Z,29.4012,-89.0355,11.36,202.0,0.199,-99999.0,'11133222,11111222,99999999' 
WAVCIS,ioos:station:WAVCIS:CSI16:1,2009-08-03T21:00:00Z,29.4012,-89.0355,10.86,196.0,0.233,-99999.0,'11133222,11111222,99999999' 
WAVCIS,ioos:station:WAVCIS:CSI16:1,2009-08-03T22:00:00Z,29.4012,-89.0355,10.86,257.0,0.127,-99999.0,'11133222,11111222,99999999' 
WAVCIS,ioos:station:WAVCIS:CSI16:1,2009-08-03T23:00:00Z,29.4012,-89.0355,10.86,221.0,0.086,-99999.0,'11133222,11111222,99999999' 
WAVCIS,ioos:station:WAVCIS:CSI16:1,2009-08-04T00:00:00Z,29.4012,-89.0355,10.86,268.0,0.108,-99999.0,'11133222,11111222,99999999' 
WAVCIS,ioos:station:WAVCIS:CSI16:1,2009-08-04T01:00:00Z,29.4012,-89.0355,10.86,292.0,0.144,-99999.0,'11133222,11111222,99999999' 
WAVCIS,ioos:station:WAVCIS:CSI16:1,2009-08-04T02:00:00Z,29.4012,-89.0355,10.86,111.0,0.048,-99999.0,'11133222,11111222,99999999' 
WAVCIS,ioos:station:WAVCIS:CSI16:1,2009-08-04T03:00:00Z,29.4012,-89.0355,10.86,105.0,0.069,-99999.0,'11133222,11111222,99999999' 
WAVCIS,ioos:station:WAVCIS:CSI16:1,2009-08-04T04:00:00Z,29.4012,-89.0355,10.86,100.0,0.111,-99999.0,'11133222,11111222,99999999' 
WAVCIS,ioos:station:WAVCIS:CSI16:1,2009-08-04T05:00:00Z,29.4012,-89.0355,10.86,44.0,0.105,-99999.0,'11133222,11111222,99999999' 
WAVCIS,ioos:station:WAVCIS:CSI16:1,2009-08-04T06:00:00Z,29.4012,-89.0355,10.86,116.0,0.048,-99999.0,'11133222,11111222,99999999' 
WAVCIS,ioos:station:WAVCIS:CSI16:1,2009-08-04T07:00:00Z,29.4012,-89.0355,11.36,112.0,0.117,-99999.0,'11133222,11111222,99999999' 
WAVCIS,ioos:station:WAVCIS:CSI16:1,2009-08-04T08:00:00Z,29.4012,-89.0355,11.36,177.0,0.07,-99999.0,'11133222,11111222,99999999' 
WAVCIS,ioos:station:WAVCIS:CSI16:1,2009-08-04T09:00:00Z,29.4012,-89.0355,11.36,126.0,0.085,-99999.0,'11133222,11111222,99999999' 
WAVCIS,ioos:station:WAVCIS:CSI16:1,2009-08-04T10:00:00Z,29.4012,-89.0355,11.36,63.0,0.183,-99999.0,'11133222,11111222,99999999' 
WAVCIS,ioos:station:WAVCIS:CSI16:1,2009-08-04T11:00:00Z,29.4012,-89.0355,11.36,84.0,0.118,-99999.0,'11133222,11111222,99999999' 
WAVCIS,ioos:station:WAVCIS:CSI16:1,2009-08-04T12:00:00Z,29.4012,-89.0355,11.36,99.0,0.143,-99999.0,'11133222,11111222,99999999' 
WAVCIS,ioos:station:WAVCIS:CSI16:1,2009-08-04T13:00:00Z,29.4012,-89.0355,11.36,64.0,0.111,-99999.0,'11133222,11111222,99999999' 
WAVCIS,ioos:station:WAVCIS:CSI16:1,2009-08-04T14:00:00Z,29.4012,-89.0355,11.36,344.0,0.051,-99999.0,'11133222,11111222,99999999' 
WAVCIS,ioos:station:WAVCIS:CSI16:1,2009-08-04T15:00:00Z,29.4012,-89.0355,11.36,301.0,0.117,-99999.0,'11133222,11111222,99999999' 
WAVCIS,ioos:station:WAVCIS:CSI16:1,2009-08-04T16:00:00Z,29.4012,-89.0355,11.36,261.0,0.082,-99999.0,'11133222,11111222,99999999' 
WAVCIS,ioos:station:WAVCIS:CSI16:1,2009-08-04T17:00:00Z,29.4012,-89.0355,11.36,263.0,0.058,-99999.0,'11133222,11111222,99999999' 
WAVCIS,ioos:station:WAVCIS:CSI16:1,2009-08-04T18:00:00Z,29.4012,-89.0355,11.36,209.0,0.058,-99999.0,'11133222,11111222,99999999' 
WAVCIS,ioos:station:WAVCIS:CSI16:1,2009-08-04T19:00:00Z,29.4012,-89.0355,11.36,192.0,0.102,-99999.0,'11133222,11111222,99999999' 
WAVCIS,ioos:station:WAVCIS:CSI16:1,2009-08-04T20:00:00Z,29.4012,-89.0355,11.36,194.0,0.246,-99999.0,'11133222,11111222,99999999' 
WAVCIS,ioos:station:WAVCIS:CSI16:1,2009-08-04T21:00:00Z,29.4012,-89.0355,10.86,209.0,0.172,-99999.0,'11133222,11111222,99999999' 
WAVCIS,ioos:station:WAVCIS:CSI16:1,2009-08-04T22:00:00Z,29.4012,-89.0355,10.86,225.0,0.171,-99999.0,'11133222,11111222,99999999' 
WAVCIS,ioos:station:WAVCIS:CSI16:1,2009-08-04T23:00:00Z,29.4012,-89.0355,10.86,240.0,0.177,-99999.0,'11133222,11111222,99999999' 
WAVCIS,ioos:station:WAVCIS:CSI16:1,2009-08-05T00:00:00Z,29.4012,-89.0355,10.86,269.0,0.078,-99999.0,'11133222,11111222,99999999' 
WAVCIS,ioos:station:WAVCIS:CSI16:1,2009-08-05T01:00:00Z,29.4012,-89.0355,10.86,346.0,0.075,-99999.0,'11133222,11111222,99999999' 
WAVCIS,ioos:station:WAVCIS:CSI16:1,2009-08-05T02:00:00Z,29.4012,-89.0355,10.86,180.0,0.252,-99999.0,'11133222,11111222,99999999' 
WAVCIS,ioos:station:WAVCIS:CSI16:1,2009-08-05T03:00:00Z,29.4012,-89.0355,10.86,153.0,0.237,-99999.0,'11133222,11111222,99999999' 
WAVCIS,ioos:station:WAVCIS:CSI16:1,2009-08-05T04:00:00Z,29.4012,-89.0355,10.86,158.0,0.084,-99999.0,'11133222,11111222,99999999' 
WAVCIS,ioos:station:WAVCIS:CSI16:1,2009-08-05T05:00:00Z,29.4012,-89.0355,10.86,148.0,0.065,-99999.0,'11133222,11111222,99999999' 
WAVCIS,ioos:station:WAVCIS:CSI16:1,2009-08-05T06:00:00Z,29.4012,-89.0355,11.36,187.0,0.079,-99999.0,'11133222,11111222,99999999' 
WAVCIS,ioos:station:WAVCIS:CSI16:1,2009-08-05T07:00:00Z,29.4012,-89.0355,11.36,190.0,0.11,-99999.0,'11133222,11111222,99999999' 
WAVCIS,ioos:station:WAVCIS:CSI16:1,2009-08-05T08:00:00Z,29.4012,-89.0355,11.36,191.0,0.177,-99999.0,'11133222,11111222,99999999' 
WAVCIS,ioos:station:WAVCIS:CSI16:1,2009-08-05T09:00:00Z,29.4012,-89.0355,11.36,185.0,0.188,-99999.0,'11133222,11111222,99999999' 
WAVCIS,ioos:station:WAVCIS:CSI16:1,2009-08-05T10:00:00Z,29.4012,-89.0355,11.36,197.0,0.186,-99999.0,'11133222,11111222,99999999' 
WAVCIS,ioos:station:WAVCIS:CSI16:1,2009-08-05T11:00:00Z,29.4012,-89.0355,11.36,189.0,0.137,-99999.0,'11133222,11111222,99999999' 
WAVCIS,ioos:station:WAVCIS:CSI16:1,2009-08-05T12:00:00Z,29.4012,-89.0355,11.36,81.0,0.159,-99999.0,'11133222,11111222,99999999' 
WAVCIS,ioos:station:WAVCIS:CSI16:1,2009-08-05T13:00:00Z,29.4012,-89.0355,11.36,243.0,0.062,-99999.0,'11133222,11111222,99999999' 
WAVCIS,ioos:station:WAVCIS:CSI16:1,2009-08-05T14:00:00Z,29.4012,-89.0355,11.36,229.0,0.196,-99999.0,'11133222,11111222,99999999' 
WAVCIS,ioos:station:WAVCIS:CSI16:1,2009-08-05T15:00:00Z,29.4012,-89.0355,11.36,258.0,0.325,-99999.0,'11133222,11111222,99999999' 
WAVCIS,ioos:station:WAVCIS:CSI16:1,2009-08-05T16:00:00Z,29.4012,-89.0355,11.36,280.0,0.221,-99999.0,'11133222,11111222,99999999' 
WAVCIS,ioos:station:WAVCIS:CSI16:1,2009-08-05T17:00:00Z,29.4012,-89.0355,11.36,272.0,0.13,-99999.0,'11133222,11111222,99999999' 
WAVCIS,ioos:station:WAVCIS:CSI16:1,2009-08-05T18:00:00Z,29.4012,-89.0355,11.36,291.0,0.108,-99999.0,'11133222,11111222,99999999' 
WAVCIS,ioos:station:WAVCIS:CSI16:1,2009-08-05T19:00:00Z,29.4012,-89.0355,11.36,234.0,0.074,-99999.0,'11133222,11111222,99999999' 
WAVCIS,ioos:station:WAVCIS:CSI16:1,2009-08-05T20:00:00Z,29.4012,-89.0355,11.36,215.0,0.174,-99999.0,'11133222,11111222,99999999' 
WAVCIS,ioos:station:WAVCIS:CSI16:1,2009-08-05T21:00:00Z,29.4012,-89.0355,10.86,226.0,0.199,-99999.0,'11133222,11111222,99999999' 
WAVCIS,ioos:station:WAVCIS:CSI16:1,2009-08-05T22:00:00Z,29.4012,-89.0355,10.86,237.0,0.145,-99999.0,'11133222,11111222,99999999' 
WAVCIS,ioos:station:WAVCIS:CSI16:1,2009-08-05T23:00:00Z,29.4012,-89.0355,10.86,247.0,0.146,-99999.0,'11133222,11111222,99999999' 
WAVCIS,ioos:station:WAVCIS:CSI16:1,2009-08-06T00:00:00Z,29.4012,-89.0355,10.86,107.0,0.024,-99999.0,'11133222,11111222,99999999' 
WAVCIS,ioos:station:WAVCIS:CSI16:1,2009-08-06T01:00:00Z,29.4012,-89.0355,10.86,200.0,0.116,-99999.0,'11133222,11111222,99999999' 
WAVCIS,ioos:station:WAVCIS:CSI16:1,2009-08-06T02:00:00Z,29.4012,-89.0355,10.86,198.0,0.063,-99999.0,'11133222,11111222,99999999' 
WAVCIS,ioos:station:WAVCIS:CSI16:1,2009-08-06T03:00:00Z,29.4012,-89.0355,10.86,10.0,0.055,-99999.0,'11133222,11111222,99999999' 
WAVCIS,ioos:station:WAVCIS:CSI16:1,2009-08-06T04:00:00Z,29.4012,-89.0355,10.86,114.0,0.055,-99999.0,'11133222,11111222,99999999' 
WAVCIS,ioos:station:WAVCIS:CSI16:1,2009-08-06T05:00:00Z,29.4012,-89.0355,10.86,39.0,0.198,-99999.0,'11133222,11111222,99999999' 
WAVCIS,ioos:station:WAVCIS:CSI16:1,2009-08-06T06:00:00Z,29.4012,-89.0355,10.86,47.0,0.178,-99999.0,'11133222,11111222,99999999' 
WAVCIS,ioos:station:WAVCIS:CSI16:1,2009-08-06T07:00:00Z,29.4012,-89.0355,10.86,41.0,0.082,-99999.0,'11133222,11111222,99999999' 
WAVCIS,ioos:station:WAVCIS:CSI16:1,2009-08-06T08:00:00Z,29.4012,-89.0355,10.86,44.0,0.064,-99999.0,'11133222,11111222,99999999' 
WAVCIS,ioos:station:WAVCIS:CSI16:1,2009-08-06T09:00:00Z,29.4012,-89.0355,11.36,114.0,0.159,-99999.0,'11133222,11111222,99999999' 
WAVCIS,ioos:station:WAVCIS:CSI16:1,2009-08-06T10:00:00Z,29.4012,-89.0355,11.36,174.0,0.1,-99999.0,'11133222,11111222,99999999' 
WAVCIS,ioos:station:WAVCIS:CSI16:1,2009-08-06T11:00:00Z,29.4012,-89.0355,11.36,217.0,0.216,-99999.0,'11133222,11111222,99999999' 
WAVCIS,ioos:station:WAVCIS:CSI16:1,2009-08-06T12:00:00Z,29.4012,-89.0355,11.36,194.0,0.189,-99999.0,'11133222,11111222,99999999' 
WAVCIS,ioos:station:WAVCIS:CSI16:1,2009-08-06T13:00:00Z,29.4012,-89.0355,11.36,212.0,0.325,-99999.0,'11133222,11111222,99999999' 
WAVCIS,ioos:station:WAVCIS:CSI16:1,2009-08-06T14:00:00Z,29.4012,-89.0355,11.36,220.0,0.403,-99999.0,'11133222,11111222,99999999' 
WAVCIS,ioos:station:WAVCIS:CSI16:1,2009-08-06T15:00:00Z,29.4012,-89.0355,11.36,226.0,0.506,-99999.0,'11133222,11111222,99999999' 
WAVCIS,ioos:station:WAVCIS:CSI16:1,2009-08-06T16:00:00Z,29.4012,-89.0355,11.36,233.0,0.457,-99999.0,'11133222,11111222,99999999' 
WAVCIS,ioos:station:WAVCIS:CSI16:1,2009-08-06T17:00:00Z,29.4012,-89.0355,11.36,246.0,0.434,-99999.0,'11133222,11111222,99999999' 
WAVCIS,ioos:station:WAVCIS:CSI16:1,2009-08-06T18:00:00Z,29.4012,-89.0355,11.36,259.0,0.251,-99999.0,'11133222,11111222,99999999' 
WAVCIS,ioos:station:WAVCIS:CSI16:1,2009-08-06T19:00:00Z,29.4012,-89.0355,11.36,303.0,0.054,-99999.0,'11133222,11111222,99999999' 
WAVCIS,ioos:station:WAVCIS:CSI16:1,2009-08-06T20:00:00Z,29.4012,-89.0355,11.36,280.0,0.042,-99999.0,'11133222,11111222,99999999' 
WAVCIS,ioos:station:WAVCIS:CSI16:1,2009-08-06T21:00:00Z,29.4012,-89.0355,11.36,248.0,0.035,-99999.0,'11133222,11111222,99999999' 
WAVCIS,ioos:station:WAVCIS:CSI16:1,2009-08-06T22:00:00Z,29.4012,-89.0355,11.36,139.0,0.018,-99999.0,'11133222,11111222,99999999' 
WAVCIS,ioos:station:WAVCIS:CSI16:1,2009-08-06T23:00:00Z,29.4012,-89.0355,11.36,153.0,0.062,-99999.0,'11133222,11111222,99999999' 
WAVCIS,ioos:station:WAVCIS:CSI16:1,2009-08-07T00:00:00Z,29.4012,-89.0355,11.36,172.0,0.151,-99999.0,'11133222,11111222,99999999' 
WAVCIS,ioos:station:WAVCIS:CSI16:1,2009-08-07T01:00:00Z,29.4012,-89.0355,10.86,169.0,0.205,-99999.0,'11133222,11111222,99999999' 
WAVCIS,ioos:station:WAVCIS:CSI16:1,2009-08-07T02:00:00Z,29.4012,-89.0355,10.86,205.0,0.053,-99999.0,'11133222,11111222,99999999' 
WAVCIS,ioos:station:WAVCIS:CSI16:1,2009-08-07T03:00:00Z,29.4012,-89.0355,11.36,192.0,0.089,-99999.0,'11133222,11111222,99999999' 
WAVCIS,ioos:station:WAVCIS:CSI16:1,2009-08-07T04:00:00Z,29.4012,-89.0355,11.36,340.0,0.02,-99999.0,'11133222,11111222,99999999' 
WAVCIS,ioos:station:WAVCIS:CSI16:1,2009-08-07T05:00:00Z,29.4012,-89.0355,10.86,242.0,0.032,-99999.0,'11133222,11111222,99999999' 
WAVCIS,ioos:station:WAVCIS:CSI16:1,2009-08-07T06:00:00Z,29.4012,-89.0355,11.36,89.0,0.046,-99999.0,'11133222,11111222,99999999' 
WAVCIS,ioos:station:WAVCIS:CSI16:1,2009-08-07T07:00:00Z,29.4012,-89.0355,11.36,226.0,0.079,-99999.0,'11133222,11111222,99999999' 
WAVCIS,ioos:station:WAVCIS:CSI16:1,2009-08-07T08:00:00Z,29.4012,-89.0355,11.36,235.0,0.076,-99999.0,'11133222,11111222,99999999' 
WAVCIS,ioos:station:WAVCIS:CSI16:1,2009-08-07T09:00:00Z,29.4012,-89.0355,11.36,227.0,0.137,-99999.0,'11133222,11111222,99999999' 
WAVCIS,ioos:station:WAVCIS:CSI16:1,2009-08-07T10:00:00Z,29.4012,-89.0355,11.36,237.0,0.194,-99999.0,'11133222,11111222,99999999' 
WAVCIS,ioos:station:WAVCIS:CSI16:1,2009-08-07T11:00:00Z,29.4012,-89.0355,11.36,261.0,0.159,-99999.0,'11133222,11111222,99999999' 
WAVCIS,ioos:station:WAVCIS:CSI16:1,2009-08-07T12:00:00Z,29.4012,-89.0355,11.36,260.0,0.123,-99999.0,'11133222,11111222,99999999' 
WAVCIS,ioos:station:WAVCIS:CSI16:1,2009-08-07T13:00:00Z,29.4012,-89.0355,11.36,307.0,0.114,-99999.0,'11133222,11111222,99999999' 
WAVCIS,ioos:station:WAVCIS:CSI16:1,2009-08-07T14:00:00Z,29.4012,-89.0355,11.36,326.0,0.087,-99999.0,'11133222,11111222,99999999' 
WAVCIS,ioos:station:WAVCIS:CSI16:1,2009-08-07T15:00:00Z,29.4012,-89.0355,11.36,310.0,0.08,-99999.0,'11133222,11111222,99999999' 
WAVCIS,ioos:station:WAVCIS:CSI16:1,2009-08-07T16:00:00Z,29.4012,-89.0355,11.36,349.0,0.09,-99999.0,'11133222,11111222,99999999' 
WAVCIS,ioos:station:WAVCIS:CSI16:1,2009-08-07T17:00:00Z,29.4012,-89.0355,11.36,357.0,0.115,-99999.0,'11133222,11111222,99999999' 
WAVCIS,ioos:station:WAVCIS:CSI16:1,2009-08-07T18:00:00Z,29.4012,-89.0355,11.36,7.0,0.048,-99999.0,'11133222,11111222,99999999' 
WAVCIS,ioos:station:WAVCIS:CSI16:1,2009-08-07T19:00:00Z,29.4012,-89.0355,11.36,9.0,0.114,-99999.0,'11133222,11111222,99999999' 
WAVCIS,ioos:station:WAVCIS:CSI16:1,2009-08-07T20:00:00Z,29.4012,-89.0355,11.36,344.0,0.12,-99999.0,'11133222,11111222,99999999' 
WAVCIS,ioos:station:WAVCIS:CSI16:1,2009-08-07T21:00:00Z,29.4012,-89.0355,11.36,306.0,0.125,-99999.0,'11133222,11111222,99999999' 
WAVCIS,ioos:station:WAVCIS:CSI16:1,2009-08-07T22:00:00Z,29.4012,-89.0355,11.36,293.0,0.134,-99999.0,'11133222,11111222,99999999' 
WAVCIS,ioos:station:WAVCIS:CSI16:1,2009-08-07T23:00:00Z,29.4012,-89.0355,11.36,17.0,0.123,-99999.0,'11133222,11111222,99999999' 
WAVCIS,ioos:station:WAVCIS:CSI16:1,2009-08-08T00:00:00Z,29.4012,-89.0355,11.36,24.0,0.331,-99999.0,'11133222,11111222,99999999' 
WAVCIS,ioos:station:WAVCIS:CSI16:1,2009-08-08T01:00:00Z,29.4012,-89.0355,10.86,342.0,0.142,-99999.0,'11133222,11111222,99999999' 
WAVCIS,ioos:station:WAVCIS:CSI16:1,2009-08-08T02:00:00Z,29.4012,-89.0355,10.86,9.0,0.202,-99999.0,'11133222,11111222,99999999' 
WAVCIS,ioos:station:WAVCIS:CSI16:1,2009-08-08T03:00:00Z,29.4012,-89.0355,11.36,30.0,0.194,-99999.0,'11133222,11111222,99999999' 
WAVCIS,ioos:station:WAVCIS:CSI16:1,2009-08-08T04:00:00Z,29.4012,-89.0355,10.86,15.0,0.176,-99999.0,'11133222,11111222,99999999' 
WAVCIS,ioos:station:WAVCIS:CSI16:1,2009-08-08T05:00:00Z,29.4012,-89.0355,10.86,28.0,0.162,-99999.0,'11133222,11111222,99999999' 
WAVCIS,ioos:station:WAVCIS:CSI16:1,2009-08-08T06:00:00Z,29.4012,-89.0355,10.86,24.0,0.193,-99999.0,'11133222,11111222,99999999' 
WAVCIS,ioos:station:WAVCIS:CSI16:1,2009-08-08T07:00:00Z,29.4012,-89.0355,10.86,36.0,0.27,-99999.0,'11133222,11111222,99999999' 
WAVCIS,ioos:station:WAVCIS:CSI16:1,2009-08-08T08:00:00Z,29.4012,-89.0355,10.86,27.0,0.223,-99999.0,'11133222,11111222,99999999' 
WAVCIS,ioos:station:WAVCIS:CSI16:1,2009-08-08T09:00:00Z,29.4012,-89.0355,10.86,42.0,0.243,-99999.0,'11133222,11111222,99999999' 
WAVCIS,ioos:station:WAVCIS:CSI16:1,2009-08-08T10:00:00Z,29.4012,-89.0355,10.86,33.0,0.377,-99999.0,'11133222,11111222,99999999' 
WAVCIS,ioos:station:WAVCIS:CSI16:1,2009-08-08T11:00:00Z,29.4012,-89.0355,10.86,27.0,0.227,-99999.0,'11133222,11111222,99999999' 
WAVCIS,ioos:station:WAVCIS:CSI16:1,2009-08-08T12:00:00Z,29.4012,-89.0355,11.36,98.0,0.045,-99999.0,'11133222,11111222,99999999' 
WAVCIS,ioos:station:WAVCIS:CSI16:1,2009-08-08T13:00:00Z,29.4012,-89.0355,11.36,45.0,0.297,-99999.0,'11133222,11111222,99999999' 
WAVCIS,ioos:station:WAVCIS:CSI16:1,2009-08-08T14:00:00Z,29.4012,-89.0355,11.36,44.0,0.392,-99999.0,'11133222,11111222,99999999' 
WAVCIS,ioos:station:WAVCIS:CSI16:1,2009-08-08T15:00:00Z,29.4012,-89.0355,11.36,46.0,0.415,-99999.0,'11133222,11111222,99999999' 